{"data":{"norad_id":67652,"intl_designator":"2026-022E","name":"STARLINK-36699","alt_names":[],"object_type":"PAYLOAD","status":"ACTIVE","operator":null,"country":"US","launch_date":"2026-02-02","launch_site_code":"AFWTR","launch_vehicle":null,"mission":null,"orbit_class":"UNKNOWN","rcs_meters":null,"size_class":null,"mass_kg":null,"dimensions":null,"purposes":["comms"],"wikipedia_slug":null,"has_3d_model":false,"image_url":null,"decayed_at":null,"tle_current":{"epoch":"2026-05-25T02:05:40.585920Z","epoch_age_seconds":70584,"freshness":"FRESH","line1":"1 67652U 26022E   26145.08727530  .00015652  00000+0  48618-3 0  9996","line2":"2 67652  97.2860 178.3885 0000992 235.3369 124.7780 15.33443924 17286","mean_motion":15.33443924,"eccentricity":9.92e-5,"inclination_deg":97.286,"raan_deg":178.3885,"arg_perigee_deg":235.3369,"mean_anomaly_deg":124.778,"bstar":0.00048618,"rev_number":1728,"period_min":93.906270549741,"perigee_km":464.86748250808,"apogee_km":466.22526928986,"semimajor_km":6843.683375899,"source":"CELESTRAK","updated_at":"2026-05-25T13:38:21.657048Z"}}}